Location: Ch�tillon
(48.8024°N, 2.2935°E)
Time: 11:42:54
(UTC+00:00)

MOS 1-B Rocket - Pass Details

Date: 16 October 2021
Orbit: 890 x 1605 km, 99.0° (Epoch: 07 December)

Event Time Altitude Azimuth Distance (km) Brightness Sun altitude
Rises 17:46:24 0° 17° (NNE) 4,270 7.1 -8.5°
Reaches altitude 10° 17:49:22 10° 22° (NNE) 3,191 6.4 -9.0°
Maximum altitude 17:56:22 53° 98° (E) 1,311 4.3 -10.2°
Drops below altitude 10° 18:02:22 10° 175° (S) 2,737 6.3 -11.2°
Sets 18:04:43 0° 180° (S) 3,618 7.0 -11.6°
